sat.trackr.live / text

‹ back to catalog

STARLINK-4489

NORAD 53542 · 2022-101R

PAYLOAD ACTIVE UNKNOWN

§ Identity

Operator
Country
US
Launch date
2022-08-19
Launch site
AFETR
Launch vehicle
Mass (kg)
RCS (m²)

Purposes: comms

External: N2YO · Heavens-Above · Gunter

§ Orbital elements

Epoch: 2026-09-20T00:16:43.974048Z

Period
93.85 min
Inclination
53.1573°
Eccentricity
0.0001198
Mean motion
15.34389799 rev/d
Perigee alt
461.9 km
Apogee alt
463.6 km
Semi-major
6,840.9 km
B*
2.1671e-5
RAAN
256.0412°
Arg perigee
84.4076°
Mean anomaly
275.7064°
Rev number
22,654

§ Raw data

STARLINK-44891 53542U 22101R   26263.01162007  .00000356  00000+0  21671-4 0  99952 53542  53.1573 256.0412 0001198  84.4076 275.7064 15.34389799226541

JSON: /api/v1/satellites/53542 · /tle

For live sub-satellite position, see the globe view (requires WebGL).

§ Visibility from observer

Set your observer location to see the next 7 days of passes ≥ 10°. The values pass through the URL so the page stays shareable.

No JS? Fill the form by hand. The geolocation button needs JavaScript.